Flag Weather past 2 weeks in Mobile, Alabama, U.S.A.

Now
53 °F

Clear.


Feels Like: 53 °F
Forecast: 39 / 56 °F
Wind: No wind

Location: Mobile Downtown Airport

Current Time: Nov 26, 2014 at 6:45:16 PM

Latest Report: Nov 26, 2014 at 5:53 PM


Visibility: 10 mi

Pressure: 30.19 "Hg

Humidity: 61%

Dew point: 40 °F

Location of MobileLocation

Historic Weather in Mobile — Graph

°F

Mobile temperature yesterday

Maximum temperature yesterday: 62 °F (at 11:53 AM)
Minimum temperature yesterday: 50 °F (at 11:53 PM)
Average temperature yesterday: 56 °F

Past Weeks' High & Low Weather Summary

 TemperatureHumidityPressure
High79 °F (Nov 24, 2:53 PM)100% (Nov 11, 10:53 PM)30.49 "Hg (Nov 11, 10:53 PM)
Low25 °F (Nov 19, 4:53 AM)20% (Nov 19, 1:53 PM)29.69 "Hg (Nov 23, 1:53 PM)
Average52 °F70%30.17 "Hg
* Reported Nov 11 4:53 PM — Nov 26 4:53 PM, Mobile, Weather by CustomWeather, © 2014

Note: Actual official high and low records may vary slightly from our data, if they occured in-between our weather recording intervals... More about our weather records

Advertising

Mobile weather history for previous 24 hours

 ConditionsComfort  
Time TempWeatherWind HumidityBarometerVisibility
4:53 PM
Nov 26
55 °FClear.5 mph51%30.19 "Hg10 mi
3:53 PM59 °FSunny.7 mph38%30.18 "Hg10 mi
2:53 PM63 °FSunny.8 mph38%30.18 "Hg10 mi
1:53 PM59 °FSunny.12 mph58%30.20 "Hg10 mi
12:53 PM58 °FSunny.10 mph50%30.21 "Hg10 mi
11:53 AM57 °FSunny.6 mph42%30.24 "Hg10 mi
10:53 AM55 °FSunny.6 mph37%30.26 "Hg10 mi
9:53 AM54 °FSunny.6 mph31%30.29 "Hg10 mi
8:53 AM50 °FSunny.7 mph41%30.28 "Hg10 mi
7:53 AM44 °FSunny.7 mph58%30.27 "Hg10 mi
6:53 AM38 °FSunny.6 mph70%30.24 "Hg10 mi
5:53 AM39 °FClear.7 mph67%30.23 "Hg10 mi
4:53 AM38 °FClear.9 mph70%30.20 "Hg10 mi
3:53 AM39 °FClear.8 mph67%30.18 "Hg10 mi
2:53 AM44 °FClear.10 mph58%30.20 "Hg10 mi
1:53 AM45 °FClear.8 mph56%30.18 "Hg10 mi
12:53 AM46 °FClear.12 mph56%30.17 "Hg10 mi
11:53 PM
Nov 25
50 °FClear.15 mph48%30.16 "Hg10 mi
10:53 PM51 °FPassing clouds.17 mph46%30.16 "Hg10 mi
9:53 PM52 °FPassing clouds.16 mph47%30.17 "Hg10 mi
8:53 PM53 °FPassing clouds.16 mph51%30.15 "Hg10 mi
7:53 PM54 °FPassing clouds.12 mph49%30.15 "Hg10 mi
6:53 PM55 °FOvercast.10 mph47%30.16 "Hg10 mi
Weather by CustomWeather, © 2014

See weather overviewHow to use our weather pages